This demonstration page uses our WeatherBlox Daily Observations layout. Learn more.

Hourly Observations for March 21, 2016

Temp ( °F °C ) Dew Point ( °F °C ) Humidity (%) Winds ( mph kmh ) Pressure ( in mb ) Visibility ( mi km ) Precip ( " mm )
12:15 am 00:15 Clear 35 1.5 20 -6.7 55 55 S 12 19 30.21 1023 10 16.0934 0 0
12:35 am 00:35 Clear 35 1.5 20 -6.6 55 55 S 13 20 30.21 1023 10 16.0934 0 0
12:55 am 00:55 Clear 34 1.2 20 -6.6 56 56 S 12 19 30.21 1023 10 16.0934 0 0
1:15 am 01:15 Clear 35 1.4 20 -6.7 55 55 S 9 15 30.21 1023 10 16.0934 0 0
1:35 am 01:35 Clear 35 1.8 20 -6.8 53 53 SSW 15 24 30.21 1023 10 16.0934 0 0
1:55 am 01:55 Clear 35 1.9 20 -6.8 53 53 SSW 16 26 30.18 1022 10 16.0934 0 0
2:15 am 02:15 Clear 35 1.5 19 -7 54 54 SSW 15 24 30.18 1022 10 16.0934 0 0
2:35 am 02:35 Clear 34 1.2 19 -7 55 55 SSW 12 19 30.18 1022 10 16.0934 0 0
2:55 am 02:55 Clear 33 0.8 19 -7.1 56 56 SSW 12 19 30.18 1022 10 16.0934 0 0
3:15 am 03:15 Clear 32 0.1 19 -7.2 58 58 SSW 10 17 30.18 1022 10 16.0934 0 0
3:35 am 03:35 Clear 32 0 19 -7.5 57 57 SSW 10 17 30.18 1022 10 16.0934 0 0
3:55 am 03:55 Clear 32 -0.2 19 -7.5 58 58 SSW 9 15 30.18 1022 10 16.0934 0 0
4:15 am 04:15 Clear 31 -0.4 18 -7.6 59 59 SSW 10 17 30.15 1021 10 16.0934 0 0
4:35 am 04:35 Clear 31 -0.6 18 -7.7 59 59 SSW 9 15 30.15 1021 10 16.0934 0 0
4:55 am 04:55 Clear 31 -0.8 18 -8 59 59 SSW 9 15 30.12 1020 10 16.0934 0 0
5:15 am 05:15 Clear 31 -0.7 18 -8 58 58 SSW 10 17 30.12 1020 10 16.0934 0 0
5:35 am 05:35 Clear 31 -0.3 18 -8 56 56 SSW 12 19 30.09 1019 10 16.0934 0 0
5:55 am 05:55 Clear 31 -0.4 17 -8.1 56 56 SSW 10 17 30.06 1018 10 16.0934 0 0
6:15 am 06:15 Clear 31 -0.5 17 -8.1 57 57 SSW 9 15 30.06 1018 10 16.0934 0 0
6:35 am 06:35 Clear 31 -0.8 17 -8.2 58 58 S 8 13 30.09 1019 10 16.0934 0 0
6:55 am 06:55 Clear 30 -1.1 17 -8.2 59 59 S 10 17 30.09 1019 10 16.0934 0 0
7:15 am 07:15 Clear 30 -1.1 17 -8.2 59 59 S 10 17 30.09 1019 10 16.0934 0 0
7:35 am 07:35 Clear 30 -1.2 17 -8.1 60 60 S 10 17 30.06 1018 10 16.0934 0 0
7:55 am 07:55 Sunny 30 -0.9 17 -8.1 59 59 S 9 15 30.03 1017 10 16.0934 0 0
8:15 am 08:15 Sunny 31 -0.7 18 -7.7 59 59 S 9 15 30.03 1017 10 16.0934 0 0
8:35 am 08:35 Sunny 32 0.2 19 -7.3 57 57 S 9 15 30.03 1017 10 16.0934 0 0
8:55 am 08:55 Sunny 34 1.3 19 -7.2 54 54 SSW 12 19 30.03 1017 10 16.0934 0 0
9:15 am 09:15 Sunny 37 2.5 19 -7 50 50 S 13 20 29.97 1015 10 16.0934 0 0
9:35 am 09:35 Sunny 38 3.5 20 -6.8 47 47 SSW 12 19 29.97 1015 10 16.0934 0 0
9:55 am 09:55 Sunny 40 4.2 20 -6.7 45 45 SSW 14 22 29.97 1015 10 16.0934 0 0
10:15 am 10:15 Sunny 41 5.2 20 -6.5 43 43 S 13 20 29.94 1014 10 16.0934 0 0
10:35 am 10:35 Sunny 44 6.7 20 -6.5 39 39 S 12 19 29.94 1014 10 16.0934 0 0
10:55 am 10:55 Sunny 47 8.5 21 -6.2 35 35 SSW 10 17 29.88 1012 10 16.0934 0 0
11:15 am 11:15 Sunny 51 10.3 21 -6.1 31 31 S 12 19 29.88 1012 10 16.0934 0 0
11:35 am 11:35 Sunny 53 11.6 20 -6.5 28 28 SSW 13 20 29.85 1011 10 16.0934 0 0
11:55 am 11:55 Sunny 56 13.1 20 -6.4 25 25 SSW 13 20 29.85 1011 10 16.0934 0 0
12:15 pm 12:15 Sunny 57 13.8 19 -7 23 23 SW 12 19 29.83 1010 10 16.0934 0 0
12:35 pm 12:35 Sunny 59 15.1 20 -6.5 22 22 SSW 12 19 29.77 1008 10 16.0934 0 0
12:55 pm 12:55 Sunny 62 16.4 21 -6.2 21 21 S 15 24 29.77 1008 10 16.0934 0 0
1:15 pm 13:15 Sunny 63 17.4 20 -6.4 19 19 SSW 15 24 29.77 1008 10 16.0934 0 0
1:35 pm 13:35 Sunny 66 19.1 20 -6.9 17 17 SW 17 28 29.71 1006 10 16.0934 0 0
1:55 pm 13:55 Sunny 68 19.8 20 -6.9 16 16 SSW 16 26 29.71 1006 10 16.0934 0 0
2:15 pm 14:15 Sunny 68 20.1 20 -6.4 16 16 SSW 14 22 29.71 1006 10 16.0934 0 0
2:35 pm 14:35 Sunny 69 20.6 21 -5.9 16 16 SSW 18 30 29.71 1006 10 16.0934 0 0
2:55 pm 14:55 Sunny 71 21.8 23 -5 16 16 SSW 18 30 29.68 1005 10 16.0934 0 0
3:15 pm 15:15 Sunny 71 21.9 23 -4.8 16 16 SSW 22 35 29.65 1004 10 16.0934 0 0
3:35 pm 15:35 Sunny 73 22.9 24 -4.6 16 16 SW 16 26 29.65 1004 10 16.0934 0 0
3:55 pm 15:55 Sunny 74 23.5 24 -4.3 15 15 SSW 20 31 29.65 1004 10 16.0934 0 0
4:15 pm 16:15 Sunny 75 23.9 24 -4.3 15 15 SSW 18 30 29.62 1003 10 16.0934 0 0
4:35 pm 16:35 Sunny 76 24.7 24 -4.4 14 14 S 18 30 29.59 1002 10 16.0934 0 0
4:55 pm 16:55 Sunny 76 24.6 25 -4.1 15 15 SSW 21 33 29.59 1002 10 16.0934 0 0
5:15 pm 17:15 Sunny 76 24.5 26 -3.5 15 15 S 18 30 29.56 1001 10 16.0934 0 0
5:35 pm 17:35 Sunny 77 24.8 25 -3.7 15 15 S 22 35 29.56 1001 10 16.0934 0 0
5:55 pm 17:55 Sunny 76 24.5 26 -3.1 16 16 S 20 31 29.56 1001 10 16.0934 0 0
6:15 pm 18:15 Sunny 76 24.2 26 -3.2 16 16 S 20 31 29.53 1000 10 16.0934 0 0
6:35 pm 18:35 Sunny 74 23.3 27 -2.9 17 17 S 18 30 29.56 1001 10 16.0934 0 0
6:55 pm 18:55 Sunny 72 22.1 29 -1.9 20 20 S 16 26 29.56 1001 10 16.0934 0 0
7:15 pm 19:15 Sunny 71 21.5 29 -1.8 21 21 S 17 28 29.56 1001 10 16.0934 0 0
7:35 pm 19:35 Sunny 70 21.2 28 -2.1 21 21 S 15 24 29.56 1001 10 16.0934 0 0
7:55 pm 19:55 Clear 68 19.8 28 -2.3 22 22 S 16 26 29.56 1001 10 16.0934 0 0
8:15 pm 20:15 Clear 65 18.5 28 -2.3 24 24 S 12 19 29.59 1002 10 16.0934 0 0
8:35 pm 20:35 Clear 63 17.3 28 -2.2 27 27 S 10 17 29.59 1002 10 16.0934 0 0
8:55 pm 20:55 Clear 62 16.5 28 -2 28 28 S 10 17 29.59 1002 10 16.0934 0 0
9:15 pm 21:15 Clear 61 16.1 28 -2 29 29 S 12 19 29.62 1003 10 16.0934 0 0
9:35 pm 21:35 Clear 60 15.8 29 -1.8 30 30 S 12 19 29.62 1003 10 16.0934 0 0
9:55 pm 21:55 Clear 61 16 28 -2 29 29 S 15 24 29.62 1003 10 16.0934 0 0
10:15 pm 22:15 Clear 60 15.4 28 -2 30 30 S 16 26 29.62 1003 10 16.0934 0 0
10:35 pm 22:35 Clear 60 15.5 28 -2.3 30 30 SSW 13 20 29.62 1003 10 16.0934 0 0
10:55 pm 22:55 Clear 60 15.3 27 -2.8 29 29 SW 14 22 29.62 1003 10 16.0934 0 0
11:15 pm 23:15 Clear 59 15.1 26 -3.5 28 28 SSW 12 19 29.62 1003 10 16.0934 0 0
11:35 pm 23:35 Clear 58 14.4 25 -3.8 28 28 SSW 14 22 29.62 1003 10 16.0934 0 0
11:55 pm 23:55 Clear 58 14.5 24 -4.2 27 27 SSW 14 22 29.62 1003 10 16.0934 0 0

Powered by AerisWeather